Miscellaneous Hydrologic Data Report
Issued by NWS (Baltimore/Washington) Sterling, VA
1 of 54 available versions  First Miscellaneous Hydrologic Data Report Previous Miscellaneous Hydrologic Data Report  Print this page Close this Window


000
ASUS41 KLWX 240711
RWRLWX

REGIONAL WEATHER ROUNDUP
NATIONAL WEATHER SERVICE BALTIMORE MD/WASHINGTON DC
300 AM EDT WED MAY 24 2017

Note: "FAIR" indicates few or no clouds below 12,000 feet
with no significant weather and/or obstructions to visibility.
 TC=TEMPERATURE CELSIUS

 * =Non NWS site. Station does not report precipitation (e.g. rain,
    snow, etc.), thunder, or fog.

DCZ001-MDZ009-015-VAZ040>042-051-053>054-240800-
WASHINGTON METRO

CITY           SKY/WX    TMP DP  RH WIND       PRES   REMARKS
WASHINGTON NAT LGT RAIN  60  57  89 NE7       29.73S
DULLES         LGT RAIN  59  58  96 NE3       29.71F FOG
ANDREWS AFB    MOCLDY    57  55  91 NE7       29.71S
FT BELVOIR     LGT RAIN  59  55  88 CALM      29.72S
QUANTICO       LGT RAIN  60  58  92 N6        29.73S
COLLEGE PARK*  CLOUDY    57  56  94 CALM      29.72S
LEESBURG*      LGT RAIN  59  59 100 N3        29.73F
MANASSAS*      LGT RAIN  59  58  96 CALM      29.72F
GAITHERSBURG*  LGT RAIN  58  57  97 CALM      29.72F FOG

$$

MDZ006>007-011-014-240800-
BALTIMORE METRO

CITY           SKY/WX    TMP DP  RH WIND       PRES   REMARKS
BWI AIRPORT    LGT RAIN  59  58  96 E6        29.71F
MD SCIENCE CTR   N/A     61  58  90 MISG      29.72F
MARTIN STATE   LGT RAIN  59  59 100 CALM      29.73F
ANNAPOLIS      CLOUDY    60  57  89 NE6       29.71F
FORT MEADE*    PTCLDY    55  55 100 CALM      29.74F

$$

MDZ012-015-019>023-240800-
MARYLAND EASTERN SHORE

CITY           SKY/WX    TMP DP  RH WIND       PRES   REMARKS
OCEAN CITY     LGT RAIN  58  57  97 NE13G23   29.68F FOG
SALISBURY      CLOUDY    57  57 100 N7        29.69S
BAY BRIDGE AP* CLOUDY    59  55  88 NE3       29.72S
CAMBRIDGE*     CLOUDY    57  57 100 NE6       29.70F FOG
EASTON*        CLOUDY    58  53  83 NE8       29.74F

$$

MDZ017>025-240800-
SOUTHERN MARYLAND

CITY           SKY/WX    TMP DP  RH WIND       PRES   REMARKS
PATUXENT RIVER LGT RAIN  57  57 100 NE12      29.70S FOG
ST INIGOES     LGT RAIN  59  57  93 NE7       29.70S
LEONARDTOWN*   CLOUDY    55  55 100 CALM      29.72F

$$

MDZ003>005-240800-
NORTH CENTRAL MARYLAND

CITY           SKY/WX    TMP DP  RH WIND       PRES   REMARKS
FREDERICK*     RAIN      59  59 100 N3        29.74F
HAGERSTOWN APT LGT RAIN  58  56  93 NE3       29.72F FOG
WESTMINSTER*   LGT RAIN  57  55  94 E3        29.72F

$$

MDZ501>502-240800-
WESTERN MARYLAND

CITY           SKY/WX    TMP DP  RH WIND       PRES   REMARKS
OAKLAND*       FOG       50  50 100 SE10G16   29.71F VSB 1/4
CUMBERLAND*    CLOUDY    55  55 100 CALM      29.75F

$$

VAZ025>031-240800-
SHENANDOAH VALLEY

CITY           SKY/WX    TMP DP  RH WIND       PRES   REMARKS
WINCHESTER*    LGT RAIN  55  54  94 CALM      29.72F
FRONT ROYAL*   CLOUDY    55  55 100 CALM      29.71F
LURAY*         DRIZZLE   55  55 100 N3        29.72F
NEW MARKET*    CLOUDY    56  55  97 CALM      29.71F
STAUNTON*      HVY RAIN  56  55  98 N3        29.74F
WAYNESBORO*    CLOUDY    56  56 100 NE3       29.73S

$$

WVZ021-048>050-054>055-240800-
EASTERN WEST VIRGINIA PANHANDLE

CITY           SKY/WX    TMP DP  RH WIND       PRES   REMARKS
MARTINSBURG    LGT RAIN  57  55  93 CALM      29.71F FOG
PETERSBURG*    CLOUDY    58  57  97 CALM      29.72F FOG

$$

VAZ036>039-050-240800-
CENTRAL FOOTHILLS

CITY           SKY/WX    TMP DP  RH WIND       PRES   REMARKS
CHARLOTTESVILL LGT RAIN  58  55  90 NE7       29.72R FOG
CULPEPER*      RAIN      57  57  99 CALM      29.73F
ORANGE*        DRIZZLE   54  54 100 CALM      29.73S
GORDONSVILLE*  CLOUDY    55  55 100 CALM      29.72S
WARRENTON*     RAIN      59  56  89 CALM      29.72F

$$

VAZ055>057-240800-
NORTH AND CENTRAL PIEDMONT

CITY           SKY/WX    TMP DP  RH WIND       PRES   REMARKS
FREDERICKSBRG* RAIN      58  58 100 CALM      29.72R
STAFFORD*      HVY RAIN  56  56 100 CALM      29.76S

$$

NCZ024-NYZ072-PAZ021-071-VAZ022-071-240800-
OTHER REGIONAL OBSERVATIONS

CITY           SKY/WX    TMP DP  RH WIND       PRES   REMARKS
NEW YORK CITY  CLOUDY    60  51  72 CALM      29.77S
PHILADELPHIA   LGT RAIN  58  51  78 NE5       29.74F
PITTSBURGH     CLOUDY    59  55  87 E3        29.68F
ROANOKE        LGT RAIN  58  58 100 N3        29.71F FOG
RICHMOND       LGT RAIN  58  58 100 NE9       29.67F
RALEIGH        CLOUDY    65  65 100 NW3       29.67S FOG

$$

ANZ530>537-240800-
MARINE OBSERVATIONS

STATION/POSITION TIME  TEMP    WIND        PRES
                       AIR SEA DIR/SP/G
                 (UTC) (F)     (DEG/KT/KT) (MB)
THOMAS PT LIGHT  0700   60 65   60/ 10/ 11   N/A
BALT KEY BRIDGE  0642           40/  5/  6 1006.3F
COVE POINT       0642           60/ 12/ 15 1006.5F
LEWISETTA        0642           60/  7/ 14 1005.5S
SOLOMONS ISLAND  0648           40/  7/ 10   N/A
PINEY POINT      0648           70/  7/  9   N/A

$$


Close this window


The National Weather Service prepares its forecasts and other services in collaboration with agencies like the US Geological Survey, US Bureau of Reclamation, US Army Corps of Engineers, Natural Resource Conservation Service, National Park Service, ALERT Users Group, Bureau of Indian Affairs, and many state and local emergency managers across the country. For details, please click here.

National Weather Service
(Baltimore/Washington) Sterling Weather Forecast Office
43858 Weather Service Rd.
Sterling, VA 20166
(703) 996-2200
Page last modified: 24-May-2017 7:11 AM
Disclaimer
Credits
Glossary
Privacy Policy
About Us
Career Opportunities